Dothan, AL

8:00 AM CDT on August 23, 2017 (GMT -0500)
Dothan Regional

Weather History for KDHN - April, 2013

Change the Weather History Date:

Wednesday, April 3, 2013

  Actual Average Record
Temperature  
Mean Temperature 58 °F 62 °F  
Max Temperature 60 °F 75 °F 89 °F (1945)
Min Temperature 55 °F 50 °F 37 °F (1962)
Degree Days  
Heating Degree Days 7 4  
Month to date heating degree days 8 12  
Since 1 July heating degree days 1556 1782  
Cooling Degree Days 0 1  
Month to date cooling degree days 0 3  
Year to date cooling degree days 44 34  
Growing Degree Days 8 (Base 50)    
Moisture  
Dew Point 49 °F    
Average Humidity 75    
Maximum Humidity 94    
Minimum Humidity 45    
Precipitation  
Precipitation 0.19 in 0.14 in 0.98 in (1941)
Month to date precipitation 0.19 0.44  
Year to date precipitation 8.19 15.72  
Sea Level Pressure  
Sea Level Pressure 30.05 in    
Wind  
Wind Speed 8 mph (ENE)    
Max Wind Speed 16 mph    
Max Gust Speed 24 mph    
Visibility 9 miles    
Events Rain    
T = Trace of Precipitation, MM = Missing Value Source: NWS Daily Summary

Daily Weather History Graph

Daily Weather History Graph

Search for Another Location

Airport or City:

Trip Planner

Search our weather history database for the weather conditions in past years. The results will help you decide how hot, cold, wet, or windy it might be!

Date:

Astronomy

Apr. 03, 2013 Rise Set
Actual Time 6:27 AM CDT 7:02 PM CDT
Civil Twilight 6:03 AM CDT 7:27 PM CDT
Nautical Twilight 5:34 AM CDT 7:55 PM CDT
Astronomical Twilight 5:05 AM CDT 8:25 PM CDT
Moon 1:43 AM CDT (4/3) 12:37 PM CDT (4/3)
Length of Visible Light 13h 23m
Length of Day
12h 34m
Last Quarter, 44% of the Moon is Illuminated
Apr 3
Last Quarter
Apr 10
New
Apr 18
First Quarter
Apr 25
Full
May 2
Last Quarter

Hourly Weather History & Observations

Time (CDT) Temp. Dew Point Humidity Pressure Visibility Wind Dir Wind Speed Gust Speed Precip Events Conditions
12:53 AM 57.0 °F 48.9 °F 74% 30.08 in 10.0 mi North 4.6 mph - N/A   Clear
1:53 AM 57.9 °F 48.9 °F 72% 30.06 in 10.0 mi Calm Calm - N/A   Clear
2:53 AM 57.9 °F 48.0 °F 70% 30.04 in 10.0 mi NNE 10.4 mph - N/A   Clear
3:53 AM 57.9 °F 46.0 °F 65% 30.04 in 10.0 mi NE 10.4 mph - N/A   Clear
4:53 AM 57.0 °F 41.0 °F 55% 30.05 in 10.0 mi ENE 10.4 mph - N/A   Clear
5:53 AM 55.9 °F 39.9 °F 55% 30.06 in 10.0 mi NE 9.2 mph - N/A   Clear
6:53 AM 55.9 °F 37.0 °F 49% 30.07 in 10.0 mi ENE 11.5 mph - N/A   Mostly Cloudy
7:53 AM 57.0 °F 36.0 °F 45% 30.07 in 10.0 mi ENE 9.2 mph - N/A   Clear
8:53 AM 57.0 °F 36.0 °F 45% 30.11 in 10.0 mi ENE 8.1 mph - N/A   Mostly Cloudy
9:53 AM 57.9 °F 37.9 °F 47% 30.08 in 10.0 mi ENE 11.5 mph - N/A   Overcast
10:53 AM 60.1 °F 39.9 °F 47% 30.12 in 10.0 mi ENE 5.8 mph - N/A   Partly Cloudy
11:53 AM 60.1 °F 43.0 °F 53% 30.13 in 10.0 mi ENE 4.6 mph - 0.00 in Rain Light Rain
12:53 PM 57.9 °F 48.0 °F 70% 30.14 in 5.0 mi Calm Calm - 0.02 in Rain Light Rain
1:53 PM 55.9 °F 52.0 °F 87% 30.12 in 8.0 mi NNE 6.9 mph - 0.09 in Rain Light Rain
2:53 PM 55.0 °F 52.0 °F 89% 30.10 in 6.0 mi NNE 8.1 mph - 0.04 in Rain Light Rain
3:53 PM 55.9 °F 53.1 °F 90% 30.06 in 10.0 mi ESE 9.2 mph - 0.02 in Rain Light Rain
4:53 PM 55.9 °F 54.0 °F 93% 29.99 in 10.0 mi East 11.5 mph 23.0 mph 0.00 in   Clear
5:36 PM 57.2 °F 53.6 °F 88% 29.98 in 10.0 mi ENE 11.5 mph - N/A   Partly Cloudy
5:53 PM 57.0 °F 54.0 °F 89% 29.96 in 10.0 mi ENE 12.7 mph - N/A   Scattered Clouds
6:00 PM 57.2 °F 53.6 °F 88% 29.97 in 10.0 mi ENE 16.1 mph 20.7 mph N/A   Mostly Cloudy
6:34 PM 57.2 °F 53.6 °F 88% 29.97 in 10.0 mi ENE 13.8 mph 24.2 mph N/A   Overcast
6:53 PM 57.0 °F 53.1 °F 87% 29.97 in 10.0 mi ENE 13.8 mph 21.9 mph N/A   Overcast
7:53 PM 57.0 °F 54.0 °F 89% 30.00 in 10.0 mi ENE 13.8 mph 20.7 mph N/A   Overcast
8:53 PM 57.0 °F 54.0 °F 89% 30.02 in 10.0 mi ENE 13.8 mph 24.2 mph N/A   Overcast
9:14 PM 57.2 °F 53.6 °F 88% 30.04 in 10.0 mi ENE 12.7 mph 20.7 mph N/A   Overcast
9:53 PM 57.0 °F 54.0 °F 89% 30.04 in 10.0 mi ENE 10.4 mph - N/A   Overcast
10:27 PM 57.2 °F 55.4 °F 94% 30.05 in 10.0 mi East 12.7 mph 20.7 mph N/A   Overcast
10:53 PM 57.9 °F 55.0 °F 90% 30.03 in 10.0 mi ENE 12.7 mph - N/A   Overcast
11:53 PM 57.9 °F 55.9 °F 93% 30.02 in 4.0 mi ENE 10.4 mph 17.3 mph 0.02 in Rain Light Rain